Location: Bamazo
(6.7448°N, 10.8189°W)
Time: 01:13:57
(UTC+00:00)

Cosmos 1844 Rocket - Pass Details

Date: 18 September 2020
Orbit: 823 x 846 km, 71.0° (Epoch: 21 October)

Event Time Altitude Azimuth Distance (km) Brightness Sun altitude
Rises 19:26:13 0° 186° (S) 3,353 5.9 -12.0°
Reaches altitude 10° 19:28:41 10° 182° (S) 2,418 5.1 -12.6°
Maximum altitude 19:34:05 55° 105° (ESE) 981 2.7 -14.0°
Drops below altitude 10° 19:39:28 10° 28° (NNE) 2,413 4.8 -15.3°
Sets 19:41:56 0° 24° (NNE) 3,346 5.6 -15.9°
